This is the latest recevied weather packets stored in our database for station/object XE2RCS-34. If no packets are shown the sender has not sent any weather packets the latest 10 day(s).
| Time | Temp. | Humidity | Pressure | Rain* | Wind** | Luminosity | Snow |
|---|---|---|---|---|---|---|---|
| 1777568906 | 23.33° C | 43% | 1045.1 hPa | - | - | - | - |
| 1777567999 | 22.78° C | 43% | 1045.2 hPa | - | - | - | - |
| 1777567099 | 22.78° C | 43% | 1045.2 hPa | - | - | - | - |
| 1777566199 | 22.22° C | 43% | 1045.4 hPa | - | - | - | - |
| 1777565299 | 21.67° C | 43% | 1045.4 hPa | - | - | - | - |
| 1777564399 | 21.67° C | 43% | 1045.5 hPa | - | - | - | - |
| 1777563499 | 21.11° C | 44% | 1045.3 hPa | - | - | - | - |
| 1777562599 | 21.11° C | 43% | 1045.3 hPa | - | - | - | - |
| 1777561699 | 21.11° C | 43% | 1045.3 hPa | - | - | - | - |
| 1777560799 | 20.56° C | 43% | 1045.1 hPa | - | - | - | - |
| 1777559899 | 20.56° C | 43% | 1045.1 hPa | - | - | - | - |
| 1777559000 | 20.56° C | 43% | 1045 hPa | - | - | - | - |
| 1777558099 | 20.56° C | 43% | 1045 hPa | - | - | - | - |
| 1777557201 | 20.56° C | 43% | 1045.1 hPa | - | - | - | - |
| 1777556301 | 20.56° C | 42% | 1045.2 hPa | - | - | - | - |
| 1777555401 | 20.56° C | 42% | 1045.1 hPa | - | - | - | - |
| 1777554501 | 20.56° C | 42% | 1044.7 hPa | - | - | - | - |
| 1777553601 | 20.56° C | 42% | 1044.8 hPa | - | - | - | - |
| 1777552701 | 20.56° C | 42% | 1044.6 hPa | - | - | - | - |
| 1777551801 | 21.11° C | 42% | 1044.7 hPa | - | - | - | - |
| 1777550901 | 21.11° C | 42% | 1044.5 hPa | - | - | - | - |
| 1777550001 | 21.11° C | 42% | 1044.7 hPa | - | - | - | - |
| 1777549101 | 21.11° C | 41% | 1044.8 hPa | - | - | - | - |
| 1777548201 | 21.67° C | 41% | 1045 hPa | - | - | - | - |
| 1777547301 | 21.67° C | 41% | 1045 hPa | - | - | - | - |
* Rain since midnight (hover to see other rain measurements)
** Current wind speed in m/s (hover to see current wind gust speed)